Location: Dackenheim
(49.5215°N, 8.1854°E)
Time: 06:31:07
(UTC+00:00)

Nadezhda 3 Rocket - Pass Details

Date: 19 May 2025
Orbit: 957 x 997 km, 82.9° (Epoch: 14 June)

Event Time Altitude Azimuth Distance (km) Brightness Sun altitude
Exits shadow 21:21:59 23° 151° (SSE) 1,936 4.9 -15.4°
Maximum altitude 21:25:33 46° 90° (E) 1,277 4.4 -15.7°
Drops below altitude 10° 21:31:28 10° 19° (NNE) 2,734 7.0 -16.2°
Sets 21:34:05 0° 14° (NNE) 3,692 7.8 -16.4°
